星链-4511 (STARLINK-4511 )

导读 | 星芒AI

STARLINK-4511 是 SpaceX Starlink 项目中的一颗低轨通信卫星,属于该系列的第 4511 颗发射卫星。它运行在约 550 公里的轨道高度,旨在为全球用户提供高速互联网服务。该卫星采用先进的相控阵天线和激光通信技术,以提升连接速度和网络稳定性。作为 Starlink 卫星群的一部分,STARLINK-4511 支持偏远地区的宽带接入,增强全球网络覆盖能力,并为未来星链服务的扩展提供关键支持。

基本信息
目录编号:
53527
目录名称:
STARLINK-4511
国际标识:
2022-101A
轨道中心:
EARTH
卫星名称:
星链-4511
卫星全名:
星链-4511 (STARLINK-4511 )
卫星状态:
在轨 (已飞行1174 天)
发射日期:
2022-08-19 UTC
国别 :
美国 (US)
星等 :
--
轨道信息
数据来源 国际轨道数据
星历时间: 2025-11-05T04:00:03+0800
7小时前
查看轨道信息
半长轴: 6716.276km
偏心率: 0.0007289
轨道倾角: 53.200°
近地点辐角 159.529°
升交点赤经 215.333°
平近点角 73.894°
近地点: 333.245km
远地点: 343.037km
周期: 91.296分钟
每日圈数: 15.772843
详细信息
固有亮度:
5
最大亮度:
2.5
卫星平台:
Starlink v1.5
覆盖范围:
全球
运营商:
太空探索技术公司
运营商所在国:
美国
制造商(研发单位):
太空探索技术公司
制造商所在国:
美国
使用方式:
暂无
卫星简介
星链(Starlink)计划是由太空探索技术公司(SpaceX)提出的一个巨型低轨卫星互联网星座项目,计划在2019年至2024年间在太空搭建由约1.2万颗卫星组成的“星链”网络,其中1584颗将部署在地球上空550千米处的近地轨道,并从2020年开始工作。该卫星仍在工作。
2D轨道图
3D轨道图
轨道高度分析图
轨道倾角分析图
轨道综合分析图
查看轨道综合分析图